Helicity
58 54 66 82 95 102 118 136 132 138 150 143 159 170 162 189 121 328 356 432 497 357 332 239 204 265 251 191 157 141 186 208 236 190 146 109 94 103 117 114 77 85 101 120 186 207 88 108 194 137 113 124 93 111
48 56 70 82 87 81 77 80 81 81 91 98 108 113 107 141 59 92 231 441 519 409 276 180 194 196 207 209 203 235 223 181 165 162 130 143 135 155 107 96 125 90 110 96 104 93 118 42 53 85 133 138 130 115
69 67 63 53 34 22 15 14 17 29 36 47 59 69 82 95 65 29 22 167 365 364 478 368 271 258 277 255 245 258 238 216 230 209 184 199 152 155 127 107 133 102 131 129 140 83 72 63 56 46 4 11 22 55
40 20 11 -1 -1 9 18 30 41 40 41 51 54 54 61 52 71 67 97 75 228 144 198 229 280 293 190 234 242 225 208 279 244 248 244 184 196 152 151 167 162 131 148 118 135 66 58 42 45 -4 -34 -28 -65 -19
2 1 0 3 4 7 16 25 28 27 37 42 52 67 41 36 46 81 108 128 165 141 148 60 66 159 186 190 237 215 199 238 214 235 216 186 164 189 212 204 203 345 334 267 182 132 150 100 117 70 83 52 34 15
7 4 7 10 16 21 23 6 3 12 27 39 34 28 39 42 77 74 34 68 60 165 105 32 175 185 337 361 276 295 294 279 245 184 178 159 203 162 71 111 192 174 201 185 166 131 108 100 103 111 114 23 20 38
6 5 3 8 7 7 10 16 28 32 22 49 53 40 46 56 115 121 104 92 6 154 125 152 109 209 304 355 373 369 337 273 287 248 219 205 151 162 141 106 144 97 121 112 133 126 30 70 67 85 72 100 90 48
9 9 16 23 25 28 34 41 35 50 52 32 66 86 79 89 112 115 97 90 161 48 66 95 107 70 121 178 253 268 256 274 229 216 222 173 146 184 105 109 91 66 45 75 90 131 132 105 91 80 73 68 73 79
16 17 28 37 40 54 60 64 60 46 76 64 142 126 132 132 103 79 54 112 147 100 166 180 102 -37 151 172 161 163 216 179 194 193 194 137 147 145 102 49 19 20 40 49 66 108 129 97 71 61 54 78 99 117
28 31 30 32 42 46 57 65 44 40 55 216 171 149 99 82 61 51 64 71 77 85 118 146 169 156 172 154 117 80 100 112 111 135 180 160 132 129 57 -11 -12 43 62 65 52 72 100 100 78 66 59 65 80 80
36 39 37 32 34 37 38 51 33 75 326 229 173 135 111 81 100 95 84 76 69 76 85 101 138 119 129 145 158 54 61 70 103 106 130 141 126 71 101 84 80 57 61 64 49 52 66 62 84 94 85 74 64 76
49 43 38 34 25 21 31 47 56 164 253 173 165 126 108 116 98 83 46 30 41 31 38 60 63 74 53 89 83 85 123 117 127 166 172 126 113 64 54 54 63 93 100 104 89 86 84 89 94 85 85 106 105 77
46 41 37 30 3 26 39 92 126 297 351 223 150 106 87 58 76 72 45 40 47 31 23 19 28 37 49 62 79 89 88 121 138 165 152 101 66 64 71 51 57 81 104 112 123 98 95 105 117 118 116 114 88 85
59 52 37 17 22 46 50 145 327 302 173 160 167 134 86 64 57 57 56 38 23 43 35 -3 30 27 35 49 68 75 118 142 131 122 107 67 56 45 51 53 60 88 125 131 138 130 125 129 148 141 122 99 74 92
83 87 72 86 15 7 31 311 269 197 144 178 172 87 80 78 67 31 31 58 37 37 42 31 44 51 49 58 73 80 86 77 61 77 82 69 49 24 23 37 50 95 149 179 159 139 124 116 122 131 145 140 137 133
63 29 60 152 49 115 271 336 272 223 226 173 151 187 152 105 65 29 43 52 27 40 54 62 72 82 65 73 81 64 81 74 77 72 44 23 27 38 38 37 55 79 105 160 198 173 140 130 127 115 133 150 146 139
39 54 32 49 197 203 232 172 178 174 144 151 176 181 123 92 47 51 48 35 44 58 46 72 91 67 78 90 87 103 88 77 59 50 28 45 43 40 43 53 71 82 109 135 124 122 115 104 107 125 148 140 119 116
77 66 14 10 32 119 145 167 183 134 134 151 150 99 113 102 92 94 85 85 88 73 82 77 97 117 127 117 107 98 90 81 76 64 58 59 68 68 67 70 77 88 94 105 104 104 117 141 137 126 117 115 117 144
47 68 75 31 24 58 106 124 186 144 145 155 156 164 147 148 145 143 149 171 140 129 124 121 130 122 114 119 103 99 87 82 69 68 77 91 95 97 98 104 110 116 108 99 95 87 82 101 106 110 107 107 102 112
72 103 63 65 78 80 96 121 157 146 145 153 181 183 171 164 174 199 252 219 179 175 198 175 178 165 150 141 132 122 115 92 72 86 95 107 103 104 122 112 106 101 99 105 80 68 80 94 114 124 115 115 115 126
89 94 63 67 83 108 101 109 151 164 183 202 216 229 215 248 259 242 232 220 205 198 197 183 178 160 144 137 138 133 164 171 161 129 126 117 112 110 105 100 84 82 81 85 77 89 95 90 93 109 116 129 140 140
68 69 85 89 102 118 131 161 165 175 201 203 210 238 237 227 216 216 185 228 203 177 164 145 148 151 164 168 168 176 162 162 187 168 165 133 126 114 113 111 106 100 91 87 85 82 84 95 80 95 114 132 143 150
94 102 103 119 117 140 134 161 158 176 172 156 145 175 183 170 163 152 173 175 183 188 169 172 168 174 177 168 171 200 205 178 166 150 138 112 91 91 90 92 87 86 87 86 81 82 94 117 112 97 104 113 115 125
102 124 134 132 162 136 113 127 125 118 108 129 133 131 132 131 123 156 177 191 211 205 182 156 156 161 148 155 166 159 151 128 116 97 89 93 93 87 79 77 80 80 83 77 82 80 78 83 103 86 85 90 106 107
124 98 92 116 113 111 114 108 126 118 105 90 92 108 118 120 134 154 153 171 193 206 205 179 172 158 144 125 105 92 66 67 81 83 59 57 59 59 65 67 69 63 64 80 89 83 85 82 82 82 89 90 100 115
137 100 83 69 67 72 69 63 65 82 64 76 121 117 113 129 147 160 143 138 144 146 144 139 122 107 105 85 76 66 54 37 36 43 39 48 42 45 49 59 65 60 53 61 69 75 82 81 78 81 93 108 133 128
94 83 43 49 45 42 60 64 69 77 88 108 110 121 118 142 139 125 90 97 95 92 81 72 69 67 58 37 21 22 26 28 27 34 32 29 22 26 36 40 47 54 68 72 56 55 60 69 80 99 112 133 121 103
52 56 62 54 65 66 72 80 89 97 94 93 90 132 127 132 112 93 82 73 65 47 37 30 29 21 7 8 4 7 8 24 19 20 25 27 23 23 7 20 51 27 59 53 53 61 66 74 92 107 114 98 87 101
43 28 41 57 46 56 61 57 52 48 43 54 75 82 79 69 59 55 41 32 35 44 44 29 3 0 -6 -3 2 -3 7 26 48 62 61 58 71 66 63 75 86 90 94 93 76 64 53 60 70 69 80 51 49 63
44 38 51 54 63 58 41 40 27 15 15 19 8 24 42 24 -5 -9 4 18 28 14 0 -4 -13 -22 -8 13 17 38 35 23 23 46 45 51 57 96 95 101 117 125 122 115 90 85 78 103 125 142 138 122 116 113
31 40 55 48 43 15 15 13 13 20 17 18 4 29 14 -14 -21 -3 18 31 37 20 3 -13 -26 3 14 9 16 32 50 41 40 44 64 85 96 105 119 134 154 158 139 106 96 94 108 129 128 130 132 127 128 121
49 55 63 61 37 12 25 32 28 46 29 46 38 30 33 49 43 31 47 102 87 56 6 11 24 25 44 69 74 73 13 49 64 72 57 87 112 121 142 151 119 105 87 101 98 105 104 104 113 103 104 102 107 115
60 57 64 76 70 63 42 55 65 62 73 76 67 64 64 67 62 58 61 67 66 49 30 39 49 62 91 80 74 62 33 71 40 1 5 18 17 38 65 86 123 125 109 87 80 89 77 74 89 87 93 102 105 108
Wind_Speed
61 63 65 66 67 66 67 68 68 68 69 68 69 67 64 68 62 44 55 43 47 64 64 53 53 55 50 46 50 43 41 42 39 46 49 53 56 47 51 48 48 47 44 49 49 60 79 39 39 53 46 45 49 51
66 68 68 68 68 67 66 66 67 67 67 65 65 65 63 67 67 73 56 45 43 54 62 54 54 50 49 49 50 40 51 42 36 42 46 47 54 48 53 58 45 56 46 51 42 48 40 32 37 36 38 49 50 49
67 67 66 66 65 66 66 66 65 63 61 61 60 60 59 59 54 55 54 39 45 64 70 62 61 54 49 48 44 56 59 51 51 47 48 51 60 47 60 61 55 53 44 58 55 51 57 58 54 54 53 55 51 54
66 64 65 64 66 67 66 65 65 62 60 59 59 56 54 52 53 49 47 35 37 45 61 63 52 50 46 44 44 46 43 38 41 44 53 59 63 52 63 63 61 52 44 57 67 66 70 71 65 53 50 50 50 52
70 72 74 73 71 69 66 62 60 58 56 54 54 52 50 53 51 55 46 35 28 36 52 54 50 50 48 44 39 39 40 46 49 53 54 60 57 58 63 65 71 52 59 64 74 60 61 65 55 52 48 47 52 53
74 74 74 72 69 67 64 64 61 56 53 52 49 48 50 54 58 56 50 43 23 30 41 59 56 62 57 48 39 30 30 39 40 45 53 53 50 49 63 67 62 56 58 59 68 65 62 60 52 48 54 61 57 55
77 76 73 71 69 66 63 60 56 53 53 46 43 47 54 51 44 42 39 39 32 31 28 37 40 51 49 43 48 45 36 38 39 44 53 55 53 46 65 82 65 59 60 64 62 62 69 59 63 56 57 55 57 59
73 71 70 68 66 63 60 57 55 51 47 45 42 45 50 48 44 44 40 32 19 29 26 24 27 26 37 47 47 42 41 42 42 41 43 48 45 50 70 67 66 67 67 66 63 58 63 56 56 60 58 62 68 66
77 77 74 74 74 70 64 59 53 49 42 42 38 44 46 47 46 44 49 28 20 20 25 24 28 38 32 36 38 40 39 46 42 45 44 36 47 56 55 61 60 60 59 63 57 57 60 63 64 62 62 62 61 60
82 81 79 78 74 68 61 57 51 42 35 31 38 39 42 40 44 38 36 33 27 22 23 22 24 23 26 36 40 41 40 40 43 42 33 45 60 52 56 58 60 63 62 58 61 63 60 62 63 66 68 65 60 61
86 87 86 83 77 69 62 50 39 38 24 32 33 34 34 37 37 38 36 33 33 31 30 29 23 19 18 20 32 41 41 38 47 42 38 48 54 50 57 54 54 52 48 46 45 47 47 48 48 51 53 52 47 44
89 92 90 86 78 69 57 41 26 22 21 23 27 29 33 35 34 35 34 32 31 33 33 32 30 26 20 24 24 30 36 33 40 32 40 47 52 53 52 51 51 51 48 43 39 38 38 37 39 41 43 43 41 38
94 95 93 85 71 71 59 35 19 13 20 27 29 31 33 33 32 31 32 31 31 32 34 33 32 29 27 23 24 24 23 28 22 32 42 43 55 53 51 48 48 45 42 40 38 37 37 38 37 38 39 37 34 34
101 102 93 73 59 70 54 28 16 17 25 26 26 30 28 30 28 25 26 29 30 33 33 31 31 30 29 27 28 30 32 29 37 42 47 47 49 49 49 46 42 43 40 38 37 36 35 35 35 36 36 35 34 36
101 96 75 68 76 55 37 15 15 20 24 26 24 29 24 27 27 27 25 30 32 29 28 30 30 29 30 30 31 30 33 36 37 42 44 48 45 43 43 41 39 38 37 36 35 33 32 32 32 33 35 34 34 33
90 69 74 98 72 36 23 20 22 24 25 24 24 24 26 27 21 25 25 28 27 30 31 32 31 31 29 28 29 29 33 38 38 39 44 42 41 41 40 39 37 36 36 35 34 33 32 32 32 32 33 33 34 33
71 60 74 77 67 44 32 28 25 27 26 26 27 20 23 29 25 24 24 24 23 30 32 31 30 29 27 29 29 33 36 40 42 43 42 42 42 43 41 39 38 37 36 34 32 33 33 34 34 35 36 37 37 36
57 60 62 58 53 39 34 32 27 28 27 27 24 25 28 29 26 26 27 25 26 29 30 34 30 29 29 29 28 36 41 40 39 40 41 43 43 43 42 41 39 38 35 34 33 32 35 37 37 38 39 40 39 39
66 54 55 55 39 34 34 31 29 27 26 27 27 29 27 26 30 29 28 30 30 32 33 37 35 34 32 34 34 40 45 46 45 43 43 43 43 43 42 40 38 38 36 36 34 34 36 38 41 42 43 43 43 44
54 48 56 48 39 30 30 29 31 27 27 28 29 28 28 29 27 32 35 36 33 35 38 40 38 36 35 37 41 43 47 45 38 42 43 42 42 41 42 40 39 38 38 37 36 36 38 41 45 46 46 47 48 49
53 48 50 43 37 35 32 32 31 31 30 30 31 33 34 33 37 38 38 40 36 39 37 38 36 36 36 37 39 40 43 43 43 42 39 40 41 40 41 40 39 39 39 41 41 43 44 46 48 51 51 52 52 51
48 54 44 43 36 34 33 37 34 33 34 34 37 40 40 40 40 40 38 39 37 39 37 36 36 36 37 39 41 43 43 41 42 41 40 38 40 42 44 45 45 45 43 45 47 48 50 51 50 54 54 56 56 55
52 45 41 43 34 37 35 38 32 36 33 34 34 37 40 40 39 36 37 37 35 37 35 35 35 35 36 37 39 42 45 44 43 43 44 44 42 44 45 46 47 48 48 48 51 51 53 55 56 58 59 59 59 60
50 44 44 41 42 37 37 36 35 32 31 33 35 36 38 37 35 37 39 38 38 38 35 32 34 37 37 39 42 45 48 49 48 46 46 48 49 48 46 45 45 44 45 47 49 52 55 58 60 62 63 64 65 65
43 47 42 42 41 39 39 38 39 35 34 35 34 36 38 37 39 40 41 38 37 39 39 36 36 37 40 42 44 46 48 52 54 55 49 48 52 49 47 46 46 46 49 54 58 60 63 63 64 65 66 67 68 70
41 44 41 43 41 38 37 34 35 37 35 35 38 39 38 39 41 42 39 35 34 35 36 36 38 39 42 46 49 51 53 54 55 56 51 51 54 51 52 55 56 54 51 56 62 65 67 67 69 70 71 72 73 75
41 41 40 40 36 34 34 35 36 37 37 38 39 40 38 40 40 37 31 32 31 32 34 37 40 45 49 52 51 54 58 56 53 56 57 54 49 47 47 53 58 58 61 64 63 65 69 72 73 76 77 78 78 76
42 44 44 46 41 43 38 40 41 41 40 40 37 40 39 39 37 28 29 28 30 34 37 40 44 48 48 51 54 61 62 60 60 55 50 50 50 51 48 51 57 63 66 67 69 69 69 72 76 78 78 76 75 77
43 43 40 45 41 42 43 40 40 38 38 37 37 37 36 33 27 25 26 29 33 38 44 49 49 55 52 53 56 63 65 62 62 63 64 66 65 59 57 67 71 72 72 74 75 74 74 75 73 68 66 75 82 83
45 44 40 43 43 44 42 39 40 39 38 36 34 33 32 31 28 27 27 29 35 43 50 55 58 60 61 65 71 73 67 60 53 57 65 69 69 69 73 75 76 75 74 76 77 79 78 72 72 77 84 89 89 88
40 40 41 42 41 38 39 40 39 38 38 38 36 34 32 31 29 25 25 29 36 45 53 64 69 59 62 66 71 74 73 60 57 59 61 64 67 70 73 74 74 74 74 73 74 71 69 75 81 87 90 88 87 86
42 42 40 40 37 35 38 38 37 36 36 35 34 34 33 33 32 27 28 26 33 49 59 68 71 65 60 60 60 57 55 58 61 64 66 67 69 69 70 71 70 69 64 60 62 66 74 80 83 82 82 83 84 85
40 41 41 39 38 36 37 36 37 35 34 33 33 32 33 36 37 35 33 29 36 51 64 67 58 55 59 58 55 54 56 60 65 69 73 77 78 78 76 72 63 59 62 67 74 76 79 78 78 80 82 83 85 85
Wind_Direction
340 337 336 337 338 338 338 337 335 335 332 329 327 327 325 327 318 285 296 275 283 292 294 295 294 291 297 296 294 300 301 299 298 293 296 298 293 297 293 292 292 288 285 283 279 279 278 298 292 281 292 297 297 296
334 333 335 336 337 338 338 338 337 337 337 336 335 330 324 325 319 319 298 284 282 290 297 297 286 288 286 285 290 285 290 298 298 297 295 299 294 298 293 290 296 288 286 284 280 285 301 311 303 304 304 302 301 300
334 335 337 339 340 339 339 339 339 340 340 339 339 338 337 334 327 322 312 314 295 295 293 289 286 287 286 282 282 279 284 286 285 291 293 293 287 296 289 289 293 292 293 284 287 290 287 292 297 299 300 298 300 296
336 338 339 339 338 339 340 341 342 341 341 341 340 339 339 339 337 332 319 310 304 311 298 294 301 298 291 282 282 282 284 295 295 288 285 284 286 294 291 291 290 293 295 290 285 288 288 289 295 300 306 301 299 299
334 335 335 335 336 336 337 339 341 342 343 344 343 341 339 337 335 331 323 309 284 285 305 305 308 303 303 285 281 282 282 282 286 284 285 283 291 291 291 292 288 287 283 283 284 291 290 293 296 302 300 301 303 302
334 335 337 338 339 339 338 336 337 336 337 339 341 341 340 337 337 340 337 348 319 306 301 294 299 286 288 288 289 284 286 286 284 290 287 290 294 291 290 290 297 290 287 286 287 292 291 293 296 298 296 296 299 301
335 336 339 340 340 339 338 340 341 338 337 337 341 343 340 341 341 338 338 338 345 338 325 312 304 293 284 289 282 286 288 292 291 289 286 290 292 289 288 284 301 299 295 293 292 291 288 289 290 295 297 297 297 298
338 339 340 340 340 340 340 339 339 338 339 339 341 343 343 344 343 338 338 332 334 320 327 333 326 327 296 282 281 286 288 289 291 294 297 293 298 293 288 295 299 298 297 296 292 290 289 294 293 292 294 295 294 293
338 338 339 340 340 340 340 339 337 336 338 342 346 347 347 347 348 351 349 1 345 330 333 324 309 302 299 300 297 297 296 289 294 290 293 298 292 290 299 303 306 307 305 301 301 296 293 291 291 292 294 293 293 293
336 338 337 338 338 337 336 335 334 335 339 356 351 350 348 355 357 1 0 353 346 347 341 342 337 322 310 295 293 287 294 292 294 294 300 293 290 300 307 310 309 308 308 308 301 296 296 293 294 295 295 293 292 293
335 335 336 337 337 336 334 332 332 342 9 353 352 349 357 360 359 355 351 349 342 346 348 346 340 342 333 314 290 286 290 295 294 297 292 296 297 306 314 314 316 318 321 322 319 315 311 307 306 306 306 304 303 304
334 334 336 337 339 339 336 333 333 342 352 0 10 11 6 3 3 357 353 354 348 344 350 351 346 345 353 333 320 300 296 297 300 304 300 301 303 314 315 315 314 313 317 322 328 330 331 327 322 319 319 318 317 316
333 334 335 338 340 344 345 344 344 37 38 10 4 1 5 5 360 2 359 355 353 348 347 350 347 344 345 346 336 324 316 310 325 310 307 307 308 313 315 315 316 324 328 328 327 326 325 327 329 325 323 327 328 329
333 333 336 340 345 347 350 1 74 46 6 354 350 344 356 357 0 7 7 1 358 353 350 355 350 347 345 337 331 323 320 320 312 308 305 316 320 318 317 321 324 325 331 332 331 332 334 333 329 331 333 335 331 329
336 338 348 348 341 344 355 72 55 13 2 352 351 343 347 358 0 13 11 5 1 7 7 360 353 348 343 335 332 329 322 314 314 312 317 321 327 330 330 331 331 333 334 332 330 334 339 337 338 341 336 335 336 337
342 351 355 345 347 1 55 46 15 8 357 354 347 344 350 354 356 358 8 7 13 13 1 349 344 342 338 340 334 326 321 313 317 321 324 329 331 333 333 333 333 333 334 332 324 322 326 329 331 335 335 336 337 335
348 353 352 353 3 17 21 10 7 358 353 348 342 345 347 347 342 348 2 12 24 5 359 358 355 350 354 342 336 327 319 316 316 320 327 328 328 326 326 327 329 330 328 328 323 321 321 323 325 324 325 324 326 330
348 348 350 350 353 1 3 3 0 355 347 348 348 345 341 345 348 352 353 3 359 353 356 349 355 345 341 337 335 325 318 322 328 328 328 327 326 324 323 325 325 322 321 323 321 319 321 322 321 320 319 320 323 325
343 347 349 350 351 354 353 354 352 346 346 346 344 345 346 350 353 351 352 352 356 353 349 345 344 342 340 337 331 324 319 319 319 324 326 325 325 323 322 323 324 324 320 317 319 318 320 323 322 321 319 320 320 320
348 351 347 353 355 350 344 344 349 342 338 339 341 340 342 343 350 348 342 339 340 338 335 337 337 340 339 335 328 325 321 322 329 325 325 328 327 327 326 322 319 317 315 318 320 319 319 321 322 321 322 321 319 318
349 351 351 355 355 352 345 340 336 338 334 331 328 329 331 336 329 328 330 333 332 330 331 337 342 345 347 344 338 335 333 334 332 330 329 326 327 327 325 327 325 322 315 313 313 314 317 317 318 319 318 318 317 318
350 347 349 350 349 350 347 342 335 334 326 324 321 319 321 320 323 325 332 330 332 333 334 336 337 340 341 339 335 335 334 338 340 343 343 341 330 323 320 318 317 316 318 315 311 309 311 313 317 317 317 315 316 317
347 350 350 347 347 346 345 341 340 335 331 332 331 326 324 323 325 334 326 331 335 340 342 342 344 345 346 344 344 341 339 338 338 339 336 334 332 328 324 320 318 318 318 317 313 312 311 313 313 314 315 315 314 313
356 352 345 345 342 340 344 344 346 345 344 339 337 334 334 333 336 332 327 330 333 337 340 344 345 341 342 341 339 337 335 336 335 335 333 330 327 326 327 327 328 328 326 323 320 317 315 313 313 312 312 311 311 310
354 354 357 350 350 345 343 342 339 340 340 341 341 339 338 338 331 330 329 332 336 337 338 344 345 345 338 336 336 334 335 333 329 326 329 329 325 324 324 325 326 327 326 321 317 316 315 315 314 313 312 311 310 310
3 6 8 3 3 1 357 353 350 347 345 342 340 339 339 337 333 331 334 338 340 343 344 346 345 344 343 340 335 332 331 331 329 325 327 326 323 322 320 319 319 321 325 321 318 315 314 314 313 311 310 310 310 309
11 10 15 18 14 11 7 3 359 352 346 343 341 340 340 336 335 340 346 345 347 349 350 349 346 342 338 336 336 334 331 331 330 326 324 324 325 325 323 321 319 320 319 318 317 315 313 312 311 310 309 309 309 309
19 14 10 6 11 8 5 0 356 351 349 348 347 342 340 340 341 351 353 358 357 353 349 346 344 343 342 340 337 334 332 330 328 329 330 329 327 325 324 323 321 320 319 319 317 316 314 312 311 310 309 309 310 311
18 17 24 15 20 18 14 14 10 9 4 3 358 355 355 3 14 19 21 12 4 1 353 347 346 341 342 339 337 335 334 333 330 327 325 323 323 325 326 321 319 318 317 318 317 317 315 313 311 312 313 312 311 311
18 19 22 19 15 13 16 18 15 15 16 17 19 24 27 27 30 28 27 25 13 360 355 349 345 343 338 335 332 330 333 335 335 330 326 323 323 323 321 320 319 319 318 317 315 315 315 314 313 311 310 309 309 307
19 20 19 19 19 25 25 24 27 27 26 28 30 30 30 26 25 29 27 18 10 2 355 348 345 349 344 340 336 333 332 339 338 333 330 328 326 325 324 323 321 320 320 318 317 317 317 315 313 312 311 310 309 308
14 14 14 13 16 20 17 18 18 21 20 21 19 19 19 16 10 13 11 9 1 353 349 345 343 346 348 345 342 342 340 339 338 336 333 332 330 328 327 325 325 324 324 324 323 321 319 317 316 315 314 313 311 310
15 15 15 15 12 13 14 16 14 14 14 11 10 10 7 5 1 5 12 17 6 354 347 345 350 353 350 348 348 348 346 342 339 337 334 333 331 331 332 332 337 336 331 327 323 322 320 320 319 318 316 315 314 312